Location: NCO
(38.4404°N, 77.1340°W)
Time: 18:14:38
(UTC-04:00)

OTV 5 (USA 277) - Visible Passes

Search period start: 17 October 2017 00:00
Search period end: 27 October 2017 00:00
Orbit: 404 x 417 km, 43.0° (Epoch: 07 September)

Date Brightness Start Highest point End Pass type
(mag) Time Alt. Az. Time Alt. Az. Time Alt. Az.
17 Oct ? 20:16:33 10° WNW 20:19:02 39° NNW 20:19:02 39° NNW visible
18 Oct ? 19:25:28 10° WNW 19:28:42 41° N 19:30:20 23° ENE visible
18 Oct ? 21:02:48 10° WNW 21:03:06 12° WNW 21:03:06 12° WNW visible
19 Oct ? 20:11:42 10° WNW 20:14:27 56° WNW 20:14:27 56° WNW visible
20 Oct ? 19:20:38 10° WNW 19:23:59 64° NNE 19:25:53 23° E visible
20 Oct ? 20:58:16 10° W 20:58:39 12° W 20:58:39 12° W visible
21 Oct ? 20:06:59 10° W 20:10:10 40° SSW 20:10:11 40° SSW visible
22 Oct ? 19:15:49 10° WNW 19:19:10 62° SSW 19:21:50 15° SE visible
23 Oct ? 20:02:49 10° W 20:05:06 17° SW 20:06:27 14° S visible
24 Oct ? 19:11:18 10° W 19:14:10 26° SSW 19:17:03 10° SSE visible
26 Oct ? 19:08:13 10° SW 19:09:01 11° SW 19:09:49 10° SSW visible
